Time,TemperatureF,DewpointF,PressureIn,WindDirection,WindDirectionDegrees,WindSpeedMPH,WindSpeedGustMPH,Humidity,HourlyPrecipIn,Conditions,Clouds,dailyrainin,SoftwareType,DateUTC
2013-10-17 00:14:00,62.0,58.0,29.90,SSE,160,3.0,3.0,88,0.00,,,0.00,,2013-10-17 04:14:00,
2013-10-17 00:24:00,62.0,58.0,29.90,SSE,160,3.0,3.0,88,0.00,,,0.00,,2013-10-17 04:24:00,
2013-10-17 00:43:00,62.0,58.0,29.89,SSE,160,1.0,3.0,88,0.00,,,0.00,,2013-10-17 04:43:00,
2013-10-17 00:54:00,62.0,58.0,29.89,SSE,160,1.0,3.0,88,0.00,,,0.00,,2013-10-17 04:54:00,
2013-10-17 01:23:00,61.0,57.0,29.89,South,173,1.0,3.0,88,0.00,,,0.00,,2013-10-17 05:23:00,
2013-10-17 01:42:00,61.0,58.0,29.89,South,174,3.0,3.0,89,0.00,,,0.00,,2013-10-17 05:42:00,
2013-10-17 01:52:00,61.0,58.0,29.89,South,174,3.0,3.0,89,0.00,,,0.00,,2013-10-17 05:52:00,
2013-10-17 02:13:00,62.0,59.0,29.88,South,171,0.0,1.0,89,0.00,,,0.00,,2013-10-17 06:13:00,
2013-10-17 02:22:00,62.0,59.0,29.88,South,171,0.0,1.0,89,0.00,,,0.00,,2013-10-17 06:22:00,
2013-10-17 02:42:00,62.0,59.0,29.87,South,172,3.0,3.0,89,0.00,,,0.00,,2013-10-17 06:42:00,
2013-10-17 02:52:00,62.0,59.0,29.87,SSW,209,1.0,4.0,89,0.00,,,0.00,,2013-10-17 06:52:00,
2013-10-17 03:11:00,62.0,58.0,29.86,SSW,208,2.0,3.0,88,0.00,,,0.00,,2013-10-17 07:11:00,
2013-10-17 03:22:00,62.0,58.0,29.86,SSW,208,2.0,3.0,88,0.00,,,0.00,,2013-10-17 07:22:00,
2013-10-17 03:43:00,62.0,58.0,29.86,SSW,194,0.0,1.0,88,0.00,,,0.00,,2013-10-17 07:43:00,
2013-10-17 03:52:00,62.0,58.0,29.85,South,183,0.0,4.0,88,0.00,,,0.00,,2013-10-17 07:52:00,
2013-10-17 04:11:00,62.0,58.0,29.85,SSW,193,0.0,4.0,88,0.00,,,0.00,,2013-10-17 08:11:00,
2013-10-17 04:22:00,62.0,58.0,29.85,SSW,199,3.0,4.0,88,0.00,,,0.00,,2013-10-17 08:22:00,
2013-10-17 04:32:00,62.0,58.0,29.85,SSW,199,3.0,4.0,88,0.00,,,0.00,,2013-10-17 08:32:00,
2013-10-17 04:42:00,62.0,58.0,29.85,SSW,199,3.0,4.0,88,0.00,,,0.00,,2013-10-17 08:42:00,
2013-10-17 04:52:00,62.0,59.0,29.85,South,186,2.0,3.0,89,0.00,,,0.00,,2013-10-17 08:52:00,
2013-10-17 05:11:00,62.0,59.0,29.85,SSW,197,1.0,3.0,89,0.00,,,0.00,,2013-10-17 09:11:00,
2013-10-17 05:22:00,62.0,59.0,29.85,SSW,197,1.0,3.0,89,0.00,,,0.00,,2013-10-17 09:22:00,
2013-10-17 05:43:00,62.0,59.0,29.84,South,191,0.0,0.0,89,0.00,,,0.00,,2013-10-17 09:43:00,
2013-10-17 05:53:00,62.0,59.0,29.84,South,191,0.0,0.0,89,0.00,,,0.00,,2013-10-17 09:53:00,
2013-10-17 06:23:00,62.0,59.0,29.85,South,183,0.0,0.0,90,0.00,,,0.00,,2013-10-17 10:23:00,
2013-10-17 06:42:00,62.0,59.0,29.85,SSW,212,0.0,1.0,90,0.00,,,0.00,,2013-10-17 10:42:00,
2013-10-17 06:53:00,62.0,59.0,29.85,SSW,212,0.0,1.0,90,0.00,,,0.00,,2013-10-17 10:53:00,
2013-10-17 07:22:00,62.0,59.0,29.86,SSW,206,2.0,2.0,91,0.00,,,0.00,,2013-10-17 11:22:00,
2013-10-17 07:42:00,62.0,59.0,29.86,SSW,192,0.0,0.0,91,0.00,,,0.00,,2013-10-17 11:42:00,
2013-10-17 07:52:00,62.0,59.0,29.86,SSW,195,0.0,0.0,91,0.00,,,0.00,,2013-10-17 11:52:00,
2013-10-17 08:12:00,62.0,60.0,29.87,SSW,196,3.0,3.0,92,0.00,,,0.00,,2013-10-17 12:12:00,
2013-10-17 08:22:00,62.0,60.0,29.87,SSW,207,3.0,3.0,92,0.00,,,0.00,,2013-10-17 12:22:00,
2013-10-17 08:42:00,63.0,61.0,29.87,South,184,1.0,2.0,92,0.00,,,0.00,,2013-10-17 12:42:00,
2013-10-17 08:52:00,63.0,60.0,29.87,SW,224,1.0,3.0,91,0.00,,,0.00,,2013-10-17 12:52:00,
2013-10-17 09:11:00,63.0,60.0,29.88,SW,215,0.0,5.0,90,0.00,,,0.00,,2013-10-17 13:11:00,
2013-10-17 09:22:00,63.0,60.0,29.88,SW,215,0.0,5.0,90,0.00,,,0.00,,2013-10-17 13:22:00,
2013-10-17 09:33:00,63.0,60.0,29.88,SW,215,0.0,5.0,90,0.00,,,0.00,,2013-10-17 13:33:00,
2013-10-17 09:42:00,63.0,60.0,29.88,SW,215,0.0,5.0,90,0.00,,,0.00,,2013-10-17 13:42:00,
2013-10-17 10:11:00,64.0,60.0,29.88,WSW,244,3.0,4.0,87,0.00,,,0.00,,2013-10-17 14:11:00,
2013-10-17 10:22:00,64.0,60.0,29.88,WSW,244,3.0,4.0,87,0.00,,,0.00,,2013-10-17 14:22:00,
2013-10-17 10:42:00,65.0,60.0,29.88,WSW,242,0.0,3.0,84,0.00,,,0.00,,2013-10-17 14:42:00,
2013-10-17 10:52:00,66.0,61.0,29.88,SW,225,3.0,5.0,83,0.00,,,0.00,,2013-10-17 14:52:00,
2013-10-17 11:22:00,67.0,61.0,29.88,SW,236,3.0,4.0,81,0.00,,,0.00,,2013-10-17 15:22:00,
2013-10-17 11:43:00,69.0,61.0,29.87,SW,229,3.0,4.0,75,0.00,,,0.00,,2013-10-17 15:43:00,
2013-10-17 11:53:00,69.0,60.0,29.86,South,182,0.0,3.0,73,0.00,,,0.00,,2013-10-17 15:53:00,
2013-10-17 12:04:00,69.0,60.0,29.86,South,182,0.0,3.0,73,0.00,,,0.00,,2013-10-17 16:04:00,
2013-10-17 12:23:00,70.0,60.0,29.85,WSW,242,0.0,4.0,70,0.00,,,0.00,,2013-10-17 16:23:00,
2013-10-17 12:42:00,71.0,60.0,29.85,South,181,0.0,5.0,69,0.00,,,0.00,,2013-10-17 16:42:00,
2013-10-17 12:54:00,71.0,59.0,29.84,SW,236,1.0,3.0,67,0.00,,,0.00,,2013-10-17 16:54:00,
2013-10-17 13:12:00,73.0,60.0,29.84,WSW,238,3.0,6.0,63,0.00,,,0.00,,2013-10-17 17:12:00,
2013-10-17 13:22:00,75.0,60.0,29.82,South,186,1.0,4.0,60,0.00,,,0.00,,2013-10-17 17:22:00,
2013-10-17 13:53:00,73.0,59.0,29.81,SW,226,0.0,5.0,61,0.00,,,0.00,,2013-10-17 17:53:00,
2013-10-17 14:12:00,73.0,59.0,29.81,SW,226,0.0,5.0,61,0.00,,,0.00,,2013-10-17 18:12:00,
2013-10-17 14:22:00,73.0,59.0,29.80,SW,235,0.0,4.0,62,0.00,,,0.00,,2013-10-17 18:22:00,
2013-10-17 14:42:00,73.0,58.0,29.80,SSW,211,3.0,3.0,60,0.00,,,0.00,,2013-10-17 18:42:00,
2013-10-17 14:52:00,74.0,59.0,29.78,West,274,2.0,9.0,59,0.00,,,0.00,,2013-10-17 18:52:00,
2013-10-17 15:11:00,74.0,58.0,29.78,SW,226,3.0,5.0,58,0.00,,,0.00,,2013-10-17 19:11:00,
2013-10-17 15:22:00,74.0,58.0,29.78,SSW,211,3.0,6.0,58,0.00,,,0.00,,2013-10-17 19:22:00,
2013-10-17 15:42:00,74.0,58.0,29.78,SSW,207,4.0,6.0,57,0.00,,,0.00,,2013-10-17 19:42:00,
2013-10-17 15:53:00,74.0,58.0,29.78,South,173,1.0,8.0,57,0.00,,,0.00,,2013-10-17 19:53:00,
2013-10-17 16:11:00,74.0,58.0,29.78,South,182,1.0,6.0,58,0.00,,,0.00,,2013-10-17 20:11:00,
2013-10-17 16:22:00,73.0,58.0,29.78,WSW,258,3.0,8.0,59,0.00,,,0.00,,2013-10-17 20:22:00,
2013-10-17 16:32:00,73.0,58.0,29.78,WSW,258,3.0,8.0,59,0.00,,,0.00,,2013-10-17 20:32:00,
2013-10-17 16:42:00,73.0,58.0,29.78,WSW,258,3.0,8.0,59,0.00,,,0.00,,2013-10-17 20:42:00,
2013-10-17 16:52:00,73.0,58.0,29.77,South,174,2.0,7.0,59,0.00,,,0.00,,2013-10-17 20:52:00,
2013-10-17 17:22:00,71.0,60.0,29.77,SE,129,2.0,8.0,69,0.00,,,0.00,,2013-10-17 21:22:00,
2013-10-17 17:44:00,71.0,61.0,29.76,SSE,153,2.0,9.0,71,0.00,,,0.00,,2013-10-17 21:44:00,
2013-10-17 17:54:00,69.0,61.0,29.76,SSW,193,8.0,8.0,75,0.00,,,0.00,,2013-10-17 21:54:00,
2013-10-17 18:24:00,68.0,61.0,29.75,SSE,152,0.0,5.0,79,0.00,,,0.00,,2013-10-17 22:24:00,
2013-10-17 18:43:00,67.0,61.0,29.75,SSE,165,3.0,3.0,81,0.00,,,0.00,,2013-10-17 22:43:00,
2013-10-17 18:53:00,67.0,61.0,29.75,ESE,121,0.0,3.0,81,0.00,,,0.00,,2013-10-17 22:53:00,
2013-10-17 19:03:00,67.0,61.0,29.75,ESE,121,0.0,3.0,81,0.00,,,0.00,,2013-10-17 23:03:00,
2013-10-17 19:22:00,67.0,62.0,29.74,SE,136,0.0,2.0,84,0.00,,,0.00,,2013-10-17 23:22:00,
2013-10-17 19:43:00,66.0,61.0,29.73,SSE,162,3.0,7.0,85,0.00,,,0.00,,2013-10-17 23:43:00,
2013-10-17 19:53:00,66.0,62.0,29.74,SSE,149,4.0,5.0,86,0.00,,,0.00,,2013-10-17 23:53:00,
2013-10-17 20:02:00,66.0,62.0,29.74,SSE,149,4.0,5.0,86,0.00,,,0.00,,2013-10-18 00:02:00,
2013-10-17 20:12:00,66.0,62.0,29.74,SSE,149,4.0,5.0,86,0.00,,,0.00,,2013-10-18 00:12:00,
2013-10-17 20:22:00,66.0,62.0,29.74,SSE,149,4.0,5.0,86,0.00,,,0.00,,2013-10-18 00:22:00,
2013-10-17 21:12:00,65.0,62.0,29.72,SSE,153,0.0,6.0,89,0.00,,,0.00,,2013-10-18 01:12:00,
2013-10-17 21:22:00,65.0,62.0,29.72,SSE,153,0.0,6.0,89,0.00,,,0.00,,2013-10-18 01:22:00,
2013-10-17 21:32:00,65.0,62.0,29.72,SSE,153,0.0,6.0,89,0.00,,,0.00,,2013-10-18 01:32:00,
2013-10-17 21:42:00,65.0,62.0,29.72,SSE,153,0.0,6.0,89,0.00,,,0.00,,2013-10-18 01:42:00,
2013-10-17 21:53:00,65.0,62.0,29.71,South,172,2.0,8.0,89,0.01,,,0.01,,2013-10-18 01:53:00,
2013-10-17 22:12:00,65.0,61.0,29.71,South,178,2.0,4.0,88,0.01,,,0.01,,2013-10-18 02:12:00,
2013-10-17 22:22:00,65.0,61.0,29.71,SSE,164,2.0,10.0,88,0.00,,,0.01,,2013-10-18 02:22:00,
2013-10-17 22:42:00,65.0,61.0,29.70,SW,217,4.0,8.0,88,0.00,,,0.01,,2013-10-18 02:42:00,
2013-10-17 22:52:00,65.0,61.0,29.70,South,190,3.0,6.0,88,0.00,,,0.01,,2013-10-18 02:52:00,
2013-10-17 23:03:00,65.0,61.0,29.70,South,190,3.0,6.0,88,0.00,,,0.01,,2013-10-18 03:03:00,
2013-10-17 23:22:00,65.0,61.0,29.69,SSW,197,0.0,6.0,87,0.00,,,0.01,,2013-10-18 03:22:00,
2013-10-17 23:35:00,65.0,61.0,29.69,SSW,197,0.0,6.0,87,0.00,,,0.01,,2013-10-18 03:35:00,
2013-10-17 23:55:00,65.0,61.0,29.67,South,171,2.0,5.0,87,0.00,,,0.01,,2013-10-18 03:55:00,